Tracking 22440 objects as of 26-Feb-2021
HD Live streaming from Space Station
objects crossing your sky now

METEOR 1-27 DEB

Track METEOR 1-27 DEB now!
10-day predictions


NORAD ID: 38533
Int'l Code: 1977-024D
Perigee: 775.4 km
Apogee: 831.6 km
Inclination: 81.2 °
Period: 100.8 minutes
Semi major axis: 7174 km
RCS: 0.0037 m2 (small)
Launch date: April 5, 1977
Source: Commonwealth of Independent States (former USSR) (CIS)
Launch site: PLESETSK MISSILE AND SPACE COMPLEX (PKMTR)

Note: This is SATELLITE DEBRIS
aabbcc
Your satellite tracking list
Your tracking list is empty




NASA's NSSDC Master Catalog

Two Line Element Set (TLE):
1 38533U 77024D   21056.51337925  .00002012  00000-0  79001-3 0  9996
2 38533  81.2403 138.0929 0039197 231.3681 128.3989 14.28623997521039
Source of the keplerian elements: AFSPC